Flag for U.S.A. Weather past 2 weeks in Bryan – College Station, Texas, U.S.A.

Now
81 °F

Sunny.


Feels Like: 81 °F
Forecast: 58 / 81 °F
Wind: 10 mph from East

Location: Easterwood Field

Current Time: Oct 21, 2014 at 5:31:22 PM

Latest Report: Oct 21, 2014 at 4:53 PM


Visibility: 10 mi

Pressure: 29.98 "Hg

Humidity: 44%

Dew point: 57 °F

Location of Bryan – College StationLocation

Historic Weather in Bryan – College Station — Graph

°F

Bryan – College Station temperature yesterday

Maximum temperature yesterday: 81 °F (at 2:53 PM)
Minimum temperature yesterday: 59 °F (at 6:53 AM)
Average temperature yesterday: 70 °F

Past Weeks' High & Low Weather Summary

 TemperatureHumidityPressure
High90 °F (Oct 7, 4:53 PM)100% (Oct 7, 6:53 AM)30.12 "Hg (Oct 7, 6:53 AM)
Low52 °F (Oct 14, 5:53 AM)26% (Oct 14, 4:53 PM)29.66 "Hg (Oct 13, 4:53 AM)
Average72 °F72%29.96 "Hg
* Reported Oct 6 3:53 PM — Oct 21 3:53 PM, Bryan – College Station, Weather by CustomWeather, © 2014

Note: Actual official high and low records may vary slightly from our data, if they occured in-between our weather recording intervals... More about our weather records

Advertising

Bryan – College Station weather history for previous 24 hours

 ConditionsComfort  
Time TempWeatherWind HumidityBarometerVisibility
3:53 PM
Oct 21
81 °FSunny.7 mph42%29.98 "Hg10 mi
2:53 PM81 °FSunny.8 mph41%30.00 "Hg10 mi
1:53 PM79 °FSunny.10 mph42%30.02 "Hg10 mi
12:53 PM77 °FSunny.3 mph45%30.06 "Hg10 mi
11:53 AM74 °FSunny.7 mph48%30.08 "Hg10 mi
10:53 AM72 °FSunny.6 mph55%30.09 "Hg10 mi
9:53 AM67 °FSunny.6 mph68%30.09 "Hg10 mi
8:53 AM63 °FSunny.5 mph78%30.08 "Hg10 mi
7:53 AM58 °FClear.7 mph90%30.05 "Hg7 mi
6:53 AM58 °FClear.No wind87%30.04 "Hg10 mi
5:53 AM60 °FClear.No wind86%30.03 "Hg10 mi
4:53 AM61 °FClear.5 mph87%30.02 "Hg10 mi
3:53 AM60 °FClear.5 mph90%30.00 "Hg10 mi
2:53 AM62 °FClear.3 mph86%30.01 "Hg10 mi
1:53 AM64 °FClear.No wind84%30.01 "Hg10 mi
12:53 AM65 °FClear.5 mph85%30.01 "Hg10 mi
11:53 PM
Oct 20
67 °FClear.3 mph79%30.02 "Hg10 mi
10:53 PM68 °FClear.3 mph76%30.03 "Hg10 mi
9:53 PM69 °FClear.5 mph73%30.03 "Hg10 mi
8:53 PM71 °FClear.5 mph68%30.01 "Hg10 mi
7:53 PM72 °FClear.5 mph66%30.00 "Hg10 mi
6:53 PM75 °FSunny.6 mph60%29.99 "Hg10 mi
5:53 PM78 °FSunny.7 mph52%29.98 "Hg10 mi
Weather by CustomWeather, © 2014

See weather overviewHow to use our weather pages